Weather History for KNUW - November, 2013

Change the Weather History Date:

Saturday, November 9, 2013

  Actual Average Record
Temperature  
Mean Temperature 47 °F -  
Max Temperature 51 °F 50 °F 61 °F (1997)
Min Temperature 43 °F 38 °F 28 °F (2012)
Degree Days  
Heating Degree Days 18    
Moisture  
Dew Point 41 °F    
Average Humidity 79    
Maximum Humidity 89    
Minimum Humidity 63    
Precipitation  
Precipitation 0.00 in - - ()
Sea Level Pressure  
Sea Level Pressure 30.14 in    
Wind  
Wind Speed 4 mph (East)    
Max Wind Speed 8 mph    
Max Gust Speed -    
Visibility 10 miles    
Events      
Averages and records for this station are not official NWS values.
T = Trace of Precipitation, MM = Missing Value Source: NWS Daily Summary

Daily Weather History Graph

Daily Weather History Graph

Search for Another Location

Airport or City:

Trip Planner

Search our weather history database for the weather conditions in past years. The results will help you decide how hot, cold, wet, or windy it might be!

Date:

Astronomy

Nov. 09, 2013 Rise Set
Actual Time 7:09 AM PST 4:38 PM PST
Civil Twilight 6:35 AM PST 5:12 PM PST
Nautical Twilight 5:58 AM PST 5:50 PM PST
Astronomical Twilight 5:21 AM PST 6:26 PM PST
Moon 12:44 PM PST (11/9) 11:23 PM PST (11/9)
Length of Visible Light 10h 36m
Length of Day
9h 29m
Waxing Crescent, 45% of the Moon is Illuminated
Nov 9
Waxing Crescent
Nov 9
First Quarter
Nov 17
Full
Nov 25
Last Quarter
Dec 2
New

Hourly Weather History & Observations

Time (PST) Temp. Windchill Dew Point Humidity Pressure Visibility Wind Dir Wind Speed Gust Speed Precip Events Conditions
12:56 AM 48.0 °F - 42.1 °F 80% 30.16 in 10.0 mi East 5.8 mph - N/A   Overcast
1:56 AM 48.0 °F - 42.1 °F 80% 30.17 in 10.0 mi East 3.5 mph - N/A   Overcast
2:56 AM 48.0 °F - 42.1 °F 80% 30.17 in 10.0 mi East 5.8 mph - N/A   Overcast
3:56 AM 46.9 °F - 41.0 °F 80% 30.15 in 10.0 mi ESE 5.8 mph - N/A   Mostly Cloudy
4:56 AM 43.0 °F 39.5 °F 39.0 °F 86% 30.15 in 10.0 mi ESE 5.8 mph - N/A   Mostly Cloudy
5:56 AM 43.0 °F 39.5 °F 39.0 °F 86% 30.15 in 10.0 mi East 5.8 mph - N/A   Mostly Cloudy
6:56 AM 43.0 °F - 39.9 °F 89% 30.14 in 10.0 mi Calm Calm - N/A   Mostly Cloudy
7:56 AM 43.0 °F 39.5 °F 39.0 °F 86% 30.14 in 10.0 mi East 5.8 mph - N/A   Mostly Cloudy
8:56 AM 46.9 °F - 39.9 °F 77% 30.14 in 10.0 mi East 3.5 mph - N/A   Mostly Cloudy
9:56 AM 46.9 °F - 39.9 °F 77% 30.14 in 10.0 mi ESE 8.1 mph - N/A   Mostly Cloudy
10:56 AM 48.0 °F - 41.0 °F 77% 30.14 in 10.0 mi ESE 3.5 mph - N/A   Overcast
11:56 AM 50.0 °F - 41.0 °F 71% 30.13 in 10.0 mi ESE 3.5 mph - N/A   Overcast
12:56 PM 51.1 °F - 39.0 °F 63% 30.12 in 10.0 mi NNW 5.8 mph - N/A   Mostly Cloudy
1:56 PM 51.1 °F - 41.0 °F 68% 30.11 in 10.0 mi NW 5.8 mph - N/A   Overcast
2:56 PM 50.0 °F - 42.1 °F 74% 30.12 in 10.0 mi NNW 5.8 mph - N/A   Mostly Cloudy
3:56 PM 48.9 °F - 41.0 °F 74% 30.12 in 10.0 mi North 3.5 mph - N/A   Overcast
4:56 PM 48.9 °F - 41.0 °F 74% 30.13 in 10.0 mi Calm Calm - N/A   Overcast
5:56 PM 48.0 °F - 42.1 °F 80% 30.14 in 10.0 mi ESE 3.5 mph - N/A   Overcast
6:56 PM 46.9 °F - 41.0 °F 80% 30.14 in 10.0 mi SE 3.5 mph - N/A   Overcast
7:56 PM 45.0 °F 43.5 °F 41.0 °F 86% 30.14 in 10.0 mi SE 3.5 mph - N/A   Mostly Cloudy
8:56 PM 46.0 °F - 42.1 °F 86% 30.14 in 10.0 mi Calm Calm - N/A   Mostly Cloudy
9:56 PM 46.0 °F - 41.0 °F 83% 30.15 in 10.0 mi Calm Calm - N/A   Mostly Cloudy
10:56 PM 46.0 °F - 42.1 °F 86% 30.15 in 10.0 mi Calm Calm - N/A   Overcast
11:56 PM 46.0 °F 44.8 °F 41.0 °F 83% 30.15 in 10.0 mi ESE 3.5 mph - 0.00 in   Overcast